Weather History for Greenville/Spartanburg, SC

Change the Weather History Date:

Friday, February 8, 2013

  Actual Average Record
Temperature  
Mean Temperature 50 °F 44 °F  
Max Temperature 61 °F 55 °F 75 °F (1911)
Min Temperature 39 °F 34 °F 16 °F (1951)
Degree Days  
Heating Degree Days 15 21  
Month to date heating degree days 173 169  
Since 1 July heating degree days 1771 2079  
Cooling Degree Days 0 0  
Month to date cooling degree days 0 0  
Year to date cooling degree days 0 0  
Moisture  
Dew Point 38 °F    
Average Humidity 64    
Maximum Humidity 93    
Minimum Humidity 35    
Precipitation  
Precipitation 0.00 in 0.13 in 1.90 in (1903)
Month to date precipitation 0.62 1.06  
Year to date precipitation 5.89 4.88  
Snow  
Snow 0.00 in 0.00 in 1.00 in (1905)
Month to date snowfall T 0.3  
Since 1 July snowfall T 3.1  
Snow Depth 0.00 in    
Sea Level Pressure  
Sea Level Pressure 29.95 in    
Wind  
Wind Speed 9 mph (NNW)    
Max Wind Speed 17 mph    
Max Gust Speed 26 mph    
Visibility 10 miles    
Events      
T = Trace of Precipitation, MM = Missing Value Source: NWS Daily Summary

Daily Weather History Graph

Daily Weather History Graph

Search for Another Location

Airport:

Trip Planner

Search our weather history database for the weather conditions in past years. The results will help you decide how hot, cold, wet, or windy it might be!

Date:

Astronomy

Feb. 08, 2013 Rise Set
Actual Time 7:21 AM EST 6:05 PM EST
Civil Twilight 6:55 AM EST 6:31 PM EST
Nautical Twilight 6:25 AM EST 7:01 PM EST
Astronomical Twilight 5:55 AM EST 7:30 PM EST
Moon 5:47 AM EST (2/8) 4:38 PM EST (2/8)
Length of Visible Light 11h 36m
Length of Day
10h 43m
Waning Crescent, 3% of the Moon is Illuminated
Feb 8
Waning Crescent
Feb 10
New
Feb 17
First Quarter
Feb 25
Full
Mar 4
Last Quarter

Hourly Weather History & Observations

Time (EST) Temp. Windchill Dew Point Humidity Pressure Visibility Wind Dir Wind Speed Gust Speed Precip Events Conditions
12:53 AM 42.1 °F 35.7 °F 39.9 °F 92% 29.95 in 10.0 mi NNE 11.5 mph - N/A   Overcast
1:53 AM 42.1 °F 36.6 °F 39.9 °F 92% 29.92 in 10.0 mi NNE 9.2 mph - N/A   Overcast
2:26 AM 42.8 °F 37.5 °F 39.2 °F 87% 29.92 in 10.0 mi NNE 9.2 mph - N/A   Overcast
2:53 AM 42.1 °F 37.7 °F 39.9 °F 92% 29.93 in 10.0 mi North 6.9 mph - N/A   Overcast
3:28 AM 42.8 °F 38.0 °F 39.2 °F 87% 29.91 in 10.0 mi North 8.1 mph - N/A   Overcast
3:53 AM 43.0 °F 38.2 °F 39.9 °F 89% 29.91 in 10.0 mi NNE 8.1 mph - N/A   Overcast
4:36 AM 42.8 °F 38.6 °F 39.2 °F 87% 29.91 in 10.0 mi NNE 6.9 mph - N/A   Overcast
4:53 AM 43.0 °F 38.2 °F 39.9 °F 89% 29.92 in 10.0 mi NNE 8.1 mph - N/A   Overcast
5:07 AM 42.8 °F 37.5 °F 39.2 °F 87% 29.91 in 10.0 mi NNE 9.2 mph - N/A   Overcast
5:53 AM 42.1 °F 37.7 °F 39.0 °F 89% 29.91 in 10.0 mi NNE 6.9 mph - N/A   Overcast
6:53 AM 39.9 °F 36.7 °F 37.9 °F 93% 29.92 in 10.0 mi NNE 4.6 mph - N/A   Scattered Clouds
7:53 AM 41.0 °F - 39.9 °F 96% 29.94 in 10.0 mi Calm Calm - N/A   Overcast
8:53 AM 44.1 °F 42.5 °F 39.9 °F 85% 29.96 in 10.0 mi West 3.5 mph - N/A   Overcast
9:53 AM 48.9 °F - 42.1 °F 77% 29.96 in 10.0 mi West 4.6 mph - N/A   Scattered Clouds
10:53 AM 54.0 °F - 45.0 °F 72% 29.94 in 10.0 mi SW 6.9 mph - N/A   Mostly Cloudy
11:53 AM 54.0 °F - 45.0 °F 72% 29.94 in 10.0 mi WSW 12.7 mph - N/A   Mostly Cloudy
12:53 PM 55.9 °F - 45.0 °F 67% 29.91 in 10.0 mi WSW 11.5 mph 19.6 mph N/A   Overcast
1:53 PM 60.1 °F - 48.0 °F 64% 29.88 in 10.0 mi WSW 10.4 mph - N/A   Mostly Cloudy
2:53 PM 61.0 °F - 46.9 °F 60% 29.88 in 10.0 mi West 11.5 mph 18.4 mph N/A   Clear
3:53 PM 55.9 °F - 44.1 °F 64% 29.90 in 10.0 mi North 12.7 mph - N/A   Mostly Cloudy
4:53 PM 57.0 °F - 30.9 °F 37% 29.93 in 10.0 mi NNW 10.4 mph 23.0 mph N/A   Scattered Clouds
5:53 PM 53.1 °F - 30.0 °F 41% 29.96 in 10.0 mi NNE 5.8 mph - N/A   Clear
6:53 PM 51.8 °F - 24.8 °F 35% 29.98 in 10.0 mi North 12.7 mph 19.6 mph N/A   Clear
7:53 PM 48.0 °F - 28.0 °F 46% 30.02 in 10.0 mi North 12.7 mph - N/A   Clear
8:53 PM 46.0 °F 41.0 °F 30.0 °F 54% 30.04 in 10.0 mi NNW 10.4 mph 21.9 mph N/A   Clear
9:53 PM 43.0 °F 37.7 °F 30.0 °F 60% 30.09 in 10.0 mi NW 9.2 mph 17.3 mph N/A   Clear
10:53 PM 42.1 °F 34.5 °F 28.0 °F 58% 30.10 in 10.0 mi NW 15.0 mph 24.2 mph N/A   Clear
11:53 PM 41.0 °F 33.5 °F 27.0 °F 57% 30.12 in 10.0 mi North 13.8 mph 25.3 mph N/A   Clear